User: anonymous   Login
Location: Theydon Bois
(51.6750°N, 0.1050°E)
Time: 12:28:32
(UTC+01:00)
Language:

Cosmos 2151 - Orbit

View from above orbital plane
View from above orbital plane
View from above satellite
View from above satellite

Ground track
Ground track

The orbit data is extracted from the following two-line orbital elements,

1 21422U 91042A   18201.59627300 +.00000133 +00000-0 +10535-4 0  9996
2 21422 082.4988 227.2711 0015394 048.8268 311.4276 14.91967012446820
Epoch (UTC): 20 July 2018 14:18:37
Eccentricity: 0.0015394
inclination: 82.4988°
perigee height: 581 km
apogee height: 602 km
right ascension of ascending node: 227.2711°
argument of perigee: 48.8268°
revolutions per day: 14.91967012
mean anomaly at epoch: 311.4276°
orbit number at epoch: 44682

The dashed part of the orbit path shows where the satellite is in the earth's shadow,  

DLR